Quensel Arpt, British Columbia

8:51 AM PST on January 24, 2017 (GMT -0800)
Quesnel

Weather History for CYQZ - November, 2013

Change the Weather History Date:

Friday, November 29, 2013

  Actual Average Record
Temperature  
Mean Temperature 32 °F -  
Max Temperature 35 °F 27 °F 51 °F (1999)
Min Temperature 30 °F 15 °F -22 °F (2014)
Degree Days  
Heating Degree Days 32    
Moisture  
Dew Point 32 °F    
Average Humidity 99    
Maximum Humidity 100    
Minimum Humidity 93    
Precipitation  
Precipitation 0.00 in - - ()
Sea Level Pressure  
Sea Level Pressure 30.17 in    
Wind  
Wind Speed 2 mph ()    
Max Wind Speed 9 mph    
Max Gust Speed -    
Visibility 1.9 miles    
Events Fog , Rain , Snow    
Averages and records for this station are not official NWS values.
T = Trace of Precipitation, MM = Missing Value Source: Averaged Metar Reports

Daily Weather History Graph

Daily Weather History Graph

Search for Another Location

Airport or City:

Trip Planner

Search our weather history database for the weather conditions in past years. The results will help you decide how hot, cold, wet, or windy it might be!

Date:

Astronomy

Nov. 29, 2013 Rise Set
Actual Time 7:58 AM PST 3:58 PM PST
Civil Twilight 7:17 AM PST 4:39 PM PST
Nautical Twilight 6:33 AM PST 5:22 PM PST
Astronomical Twilight 5:52 AM PST 6:04 PM PST
Moon 3:42 AM PST (11/29) 2:10 PM PST (11/29)
Length of Visible Light 9h 21m
Length of Day
8h 00m
Waning Crescent, 13% of the Moon is Illuminated
Nov 29
Waning Crescent
Dec 2
New
Dec 9
First Quarter
Dec 17
Full
Dec 25
Last Quarter

Hourly Weather History & Observations

Time (PST) Temp. Windchill Dew Point Humidity Pressure Visibility Wind Dir Wind Speed Gust Speed Precip Events Conditions
12:00 AM 30.2 °F - 30.2 °F 100% 30.13 in 1.5 mi Calm Calm - N/A   Overcast
12:19 AM 30.2 °F - 30.2 °F 100% 30.13 in 0.5 mi Calm Calm - N/A Fog Light Freezing Fog
12:40 AM 30.2 °F - 30.2 °F 100% 30.13 in 0.4 mi Variable 2.3 mph - N/A Fog Fog
12:43 AM 30.2 °F - 30.2 °F 100% 30.13 in 0.4 mi Variable 2.3 mph - N/A Fog Light Freezing Fog
12:49 AM 30.2 °F - 30.2 °F 100% 30.13 in 0.6 mi Variable 2.3 mph - N/A   Mist
1:00 AM 30.2 °F - 30.2 °F 100% 30.13 in 2.0 mi Calm Calm - N/A   Overcast
2:00 AM 30.2 °F - 30.2 °F 100% 30.13 in 0.8 mi Variable 2.3 mph - N/A   Overcast
2:45 AM 30.2 °F - 30.2 °F 100% 30.13 in 0.5 mi NW 2.3 mph - N/A Fog Light Freezing Fog
2:46 AM 30.2 °F - 30.2 °F 100% 30.13 in 0.4 mi NW 2.3 mph - N/A Fog Fog
3:00 AM 32.0 °F - 30.2 °F 93% 30.13 in 0.4 mi Calm Calm - N/A Fog Fog
3:42 AM 32.0 °F 28.7 °F 32.0 °F 100% 30.14 in 0.4 mi NNW 3.5 mph - N/A Snow Snow
3:53 AM 32.0 °F 28.7 °F 32.0 °F 100% 30.13 in 0.4 mi ENE 3.5 mph - N/A Snow Snow
3:56 AM 32.0 °F 28.7 °F 32.0 °F 100% 30.14 in 0.4 mi Variable 3.5 mph - N/A Rain , Snow Light Snow
4:00 AM 32.0 °F 27.5 °F 32.0 °F 100% 30.14 in 0.4 mi Variable 4.6 mph - N/A Rain , Snow Light Snow
4:02 AM 32.0 °F 26.4 °F 32.0 °F 100% 30.14 in 0.6 mi Variable 5.8 mph - N/A Rain Light Freezing Rain
4:13 AM 32.0 °F - 32.0 °F 100% 30.15 in 3.0 mi NW 2.3 mph - N/A Rain Light Freezing Rain
4:17 AM 32.0 °F 28.7 °F 32.0 °F 100% 30.14 in 2.2 mi North 3.5 mph - N/A Rain Light Freezing Rain
4:28 AM 32.0 °F 24.2 °F 32.0 °F 100% 30.16 in 0.5 mi WNW 9.2 mph - N/A Fog , Rain Light Freezing Rain
4:29 AM 32.0 °F 24.8 °F 32.0 °F 100% 30.16 in 0.5 mi WNW 8.1 mph - N/A Fog , Rain Light Rain
4:31 AM 32.0 °F 27.5 °F 32.0 °F 100% 30.16 in 0.5 mi NW 4.6 mph - N/A Rain , Snow Light Snow
4:37 AM 32.0 °F 24.2 °F 32.0 °F 100% 30.17 in 0.8 mi WNW 9.2 mph - N/A Snow Light Snow
4:46 AM 32.0 °F 28.7 °F 32.0 °F 100% 30.16 in 1.5 mi East 3.5 mph - N/A Snow Light Snow
4:54 AM 32.0 °F - 32.0 °F 100% 30.16 in 1.8 mi Calm Calm - N/A Rain , Snow Light Snow
5:00 AM 32.0 °F 28.7 °F 32.0 °F 100% 30.16 in 1.8 mi South 3.5 mph - N/A Rain Light Rain
5:08 AM 32.0 °F - 32.0 °F 100% 30.17 in 3.0 mi Variable 2.3 mph - N/A Rain Light Rain
5:17 AM 32.0 °F - 32.0 °F 100% 30.17 in 3.0 mi Calm Calm - N/A   Overcast
5:26 AM 32.0 °F - 32.0 °F 100% 30.17 in 2.5 mi Variable 2.3 mph - N/A   Overcast
5:28 AM 32.0 °F - 32.0 °F 100% 30.17 in 2.5 mi Calm Calm - N/A Rain Light Rain
6:00 AM 32.0 °F - 32.0 °F 100% 30.18 in 1.0 mi Calm Calm - N/A Rain Light Rain
6:45 AM 32.0 °F - 32.0 °F 100% 30.18 in 3.0 mi SSE 2.3 mph - N/A Rain Light Rain
7:00 AM 32.0 °F 28.7 °F 32.0 °F 100% 30.18 in 3.0 mi South 3.5 mph - N/A Rain Light Rain
7:06 AM 32.0 °F 27.5 °F 32.0 °F 100% 30.18 in 2.2 mi South 4.6 mph - N/A Rain Light Rain
7:28 AM 32.0 °F 28.7 °F 32.0 °F 100% 30.18 in 0.8 mi South 3.5 mph - N/A Rain Light Rain
7:46 AM 32.0 °F - 32.0 °F 100% 30.19 in 0.8 mi Calm Calm - N/A   Mist
7:55 AM 32.0 °F - 32.0 °F 100% 30.19 in 0.8 mi Calm Calm - N/A Rain Light Rain
8:00 AM 32.0 °F - 32.0 °F 100% 30.19 in 0.8 mi Calm Calm - N/A Rain Light Rain
8:30 AM 32.0 °F - 32.0 °F 100% 30.19 in 1.2 mi Calm Calm - N/A Rain Light Rain
8:38 AM 32.0 °F - 32.0 °F 100% 30.19 in 1.2 mi Calm Calm - N/A Rain Light Rain
8:42 AM 32.0 °F - 32.0 °F 100% 30.19 in 1.2 mi Calm Calm - N/A Rain Rain
8:47 AM 32.0 °F - 32.0 °F 100% 30.20 in 1.2 mi Calm Calm - N/A Rain Light Freezing Rain
8:48 AM 32.0 °F - 32.0 °F 100% 30.20 in 1.2 mi Calm Calm - N/A Rain Light Freezing Rain
9:00 AM 32.0 °F - 32.0 °F 100% 30.20 in 1.0 mi Calm Calm - N/A Rain Light Freezing Rain
9:03 AM 32.0 °F - 32.0 °F 100% 30.20 in 1.0 mi Calm Calm - N/A Rain Light Freezing Rain
9:04 AM 32.0 °F - 32.0 °F 100% 30.20 in 1.0 mi Calm Calm - N/A Rain Light Rain
9:05 AM 32.0 °F - 32.0 °F 100% 30.20 in 1.0 mi Calm Calm - N/A Rain Light Freezing Rain
9:19 AM 32.0 °F - 32.0 °F 100% 30.20 in 1.8 mi South 2.3 mph - N/A   Overcast
9:42 AM 32.0 °F - 32.0 °F 100% 30.20 in 1.2 mi Variable 2.3 mph - N/A   Overcast
9:43 AM 32.0 °F - 32.0 °F 100% 30.20 in 1.2 mi Calm Calm - N/A   Overcast
10:00 AM 32.0 °F - 32.0 °F 100% 30.21 in 2.5 mi Calm Calm - N/A   Overcast
10:10 AM 32.0 °F - 32.0 °F 100% 30.21 in 3.0 mi Calm Calm - N/A   Overcast
10:21 AM 32.0 °F - 32.0 °F 100% 30.21 in 3.0 mi Calm Calm - N/A   Overcast
10:35 AM 32.0 °F - 32.0 °F 100% 30.21 in 2.5 mi SW 2.3 mph - N/A   Overcast
11:00 AM 33.8 °F - 32.0 °F 93% 30.21 in 2.5 mi Calm Calm - N/A   Overcast
11:45 AM 33.8 °F - 33.8 °F 100% 30.21 in 3.0 mi Variable 2.3 mph - N/A   Overcast
12:00 PM 33.8 °F 29.6 °F 33.8 °F 100% 30.20 in 3.0 mi SSW 4.6 mph - N/A   Overcast
1:00 PM 33.8 °F - 33.8 °F 100% 30.20 in 3.0 mi SSW 2.3 mph - N/A   Overcast
2:00 PM 35.6 °F 32.8 °F 33.8 °F 93% 30.19 in 7.0 mi South 3.5 mph - N/A   Overcast
2:17 PM 35.6 °F 31.7 °F 33.8 °F 93% 30.19 in 8.0 mi South 4.6 mph - N/A   Mostly Cloudy
3:00 PM 33.8 °F - 33.8 °F 100% 30.18 in 4.0 mi Calm Calm - N/A   Scattered Clouds
3:08 PM 33.8 °F - 33.8 °F 100% 30.17 in 2.5 mi Calm Calm - N/A   Partly Cloudy
3:39 PM 33.8 °F 28.6 °F 33.8 °F 100% 30.18 in 4.0 mi South 5.8 mph - N/A   Partly Cloudy
3:58 PM 32.0 °F 28.7 °F 32.0 °F 100% 30.18 in 5.0 mi SE 3.5 mph - N/A   Mostly Cloudy
4:00 PM 32.0 °F 28.7 °F 32.0 °F 100% 30.18 in 5.0 mi SE 3.5 mph - N/A   Mostly Cloudy
4:14 PM 32.0 °F 28.7 °F 32.0 °F 100% 30.17 in 2.0 mi South 3.5 mph - N/A   Mostly Cloudy
4:18 PM 33.8 °F - 32.0 °F 93% 30.16 in 0.8 mi Variable 2.3 mph - N/A   Scattered Clouds
4:30 PM 33.8 °F - 32.0 °F 93% 30.17 in 5.0 mi Variable 2.3 mph - N/A   Partly Cloudy
4:36 PM 32.0 °F - 32.0 °F 100% 30.17 in 2.2 mi Calm Calm - N/A   Partly Cloudy
4:45 PM 30.2 °F - 30.2 °F 100% 30.18 in 1.2 mi Calm Calm - N/A   Mostly Cloudy
4:51 PM 32.0 °F 27.5 °F 32.0 °F 100% 30.18 in 3.0 mi Variable 4.6 mph - N/A   Mostly Cloudy
5:00 PM 32.0 °F 28.7 °F 32.0 °F 100% 30.18 in 8.0 mi East 3.5 mph - N/A   Mostly Cloudy
5:34 PM 32.0 °F 26.4 °F 32.0 °F 100% 30.17 in 2.5 mi SSE 5.8 mph - N/A   Overcast
5:58 PM 32.0 °F 27.5 °F 32.0 °F 100% 30.16 in 3.0 mi South 4.6 mph - N/A   Mostly Cloudy
6:00 PM 32.0 °F 27.5 °F 32.0 °F 100% 30.16 in 4.0 mi SSW 4.6 mph - N/A   Mostly Cloudy
6:07 PM 32.0 °F 28.7 °F 32.0 °F 100% 30.16 in 2.5 mi South 3.5 mph - N/A   Mostly Cloudy
7:00 PM 32.0 °F - 32.0 °F 100% 30.16 in 0.4 mi Variable 2.3 mph - N/A Fog Fog
8:00 PM 32.0 °F - 32.0 °F 100% 30.14 in 0.5 mi Variable 2.3 mph - N/A Fog Fog
9:00 PM 32.0 °F - 32.0 °F 100% 30.14 in 0.8 mi Calm Calm - N/A   Overcast
9:44 PM 32.0 °F - 32.0 °F 100% 30.13 in 1.2 mi Calm Calm - N/A Rain Light Rain
9:48 PM 32.0 °F - 32.0 °F 100% 30.13 in 1.2 mi Calm Calm - N/A Rain Light Rain
10:00 PM 32.0 °F - 32.0 °F 100% 30.13 in 0.8 mi Calm Calm - N/A Rain Light Rain
10:56 PM 32.0 °F 28.7 °F 32.0 °F 100% 30.13 in 1.2 mi SSE 3.5 mph - N/A   Overcast
11:00 PM 32.0 °F 27.5 °F 32.0 °F 100% 30.12 in 1.2 mi SSE 4.6 mph - N/A   Overcast
11:02 PM 32.0 °F 27.5 °F 32.0 °F 100% 30.12 in 1.5 mi SSE 4.6 mph - N/A   Overcast
11:12 PM 33.8 °F 28.6 °F 32.0 °F 93% 30.13 in 3.0 mi South 5.8 mph - N/A   Overcast
11:20 PM 32.0 °F 26.4 °F 32.0 °F 100% 30.12 in 2.2 mi South 5.8 mph - N/A Snow Light Snow
11:26 PM 32.0 °F 28.7 °F 32.0 °F 100% 30.12 in 1.5 mi SSE 3.5 mph - N/A Snow Light Snow
11:37 PM 32.0 °F 27.5 °F 32.0 °F 100% 30.12 in 1.5 mi SSW 4.6 mph - N/A Snow Light Snow
11:48 PM 32.0 °F 28.7 °F 32.0 °F 100% 30.12 in 1.5 mi South 3.5 mph - N/A Snow Light Snow